Change the Weather History Date:

Thursday, August 1, 2013

  Actual Average Record
Temperature  
Mean Temperature 82 °F -  
Max Temperature 91 °F 88 °F 96 °F (1999)
Min Temperature 73 °F 71 °F 69 °F (1998)
Cooling Degree Days 17    
Growing Degree Days 32 (Base 50)    
Moisture  
Dew Point 71 °F    
Average Humidity 85    
Maximum Humidity 94    
Minimum Humidity 43    
Precipitation  
Precipitation 0.00 in - - ()
Sea Level Pressure  
Sea Level Pressure 30.03 in    
Wind  
Wind Speed 2 mph (ESE)    
Max Wind Speed 15 mph    
Max Gust Speed 28 mph    
Visibility 11 miles    
Events Rain , Thunderstorm    
Averages and records for this station are not official NWS values.
T = Trace of Precipitation, MM = Missing Value Source: NWS Daily Summary

Daily Weather History Graph

Daily Weather History Graph

Search for Another Location

Airport or City:

Trip Planner

Search our weather history database for the weather conditions in past years. The results will help you decide how hot, cold, wet, or windy it might be!

Date:

Astronomy

Aug. 01, 2013 Rise Set
Actual Time 6:50 AM EDT 8:17 PM EDT
Civil Twilight 6:25 AM EDT 8:42 PM EDT
Nautical Twilight 5:55 AM EDT 9:13 PM EDT
Astronomical Twilight 5:23 AM EDT 9:44 PM EDT
Moon 2:28 AM EDT (8/1) 4:22 PM EDT (8/1)
Length of Visible Light 14h 17m
Length of Day
13h 26m
Waning Crescent, 23% of the Moon is Illuminated
Aug 1
Waning Crescent
Aug 6
New
Aug 14
First Quarter
Aug 20
Full
Aug 28
Last Quarter

Hourly Weather History & Observations

Time (EDT) Temp. Heat Index Dew Point Humidity Pressure Visibility Wind Dir Wind Speed Gust Speed Precip Events Conditions
12:15 AM 75.2 °F - 71.6 °F 89% 30.08 in 10.0 mi Calm Calm - N/A Rain Light Rain
12:35 AM 75.2 °F - 71.6 °F 89% 30.08 in 10.0 mi NNE 4.6 mph - N/A   Light Drizzle
12:55 AM 73.4 °F - 71.6 °F 94% 30.07 in 10.0 mi NNE 4.6 mph - N/A   Clear
1:15 AM 73.4 °F - 71.6 °F 94% 30.06 in 10.0 mi East 3.5 mph - N/A Rain Light Rain
1:35 AM 75.2 °F - 71.6 °F 89% 30.05 in 10.0 mi Calm Calm - N/A   Clear
1:55 AM 73.4 °F - 71.6 °F 94% 30.04 in 10.0 mi ESE 3.5 mph - N/A   Clear
2:15 AM 73.4 °F - 71.6 °F 94% 30.03 in 10.0 mi Calm Calm - N/A   Clear
2:35 AM 73.4 °F - 71.6 °F 94% 30.03 in 10.0 mi Calm Calm - N/A   Clear
2:55 AM 73.4 °F - 71.6 °F 94% 30.03 in 10.0 mi Calm Calm - N/A   Clear
3:15 AM 73.4 °F - 71.6 °F 94% 30.02 in 10.0 mi East 3.5 mph - N/A   Clear
3:35 AM 73.4 °F - 71.6 °F 94% 30.01 in 10.0 mi ESE 3.5 mph - N/A   Clear
3:55 AM 73.4 °F - 71.6 °F 94% 30.00 in 10.0 mi East 3.5 mph - N/A   Clear
4:15 AM 73.4 °F - 71.6 °F 94% 30.00 in 10.0 mi Calm Calm - N/A   Clear
4:35 AM 73.4 °F - 71.6 °F 94% 30.00 in 10.0 mi ESE 4.6 mph - N/A   Clear
4:55 AM 73.4 °F - 71.6 °F 94% 30.00 in 10.0 mi Calm Calm - N/A   Clear
5:15 AM 73.4 °F - 71.6 °F 94% 30.00 in 10.0 mi East 3.5 mph - N/A   Clear
5:35 AM 73.4 °F - 71.6 °F 94% 30.00 in 10.0 mi Calm Calm - N/A   Clear
5:55 AM 73.4 °F - 71.6 °F 94% 30.01 in 10.0 mi Calm Calm - N/A   Clear
5:56 AM 75.2 °F - 71.6 °F 89% 30.01 in 10.0 mi Calm Calm - N/A   Partly Cloudy
6:15 AM 73.4 °F - 71.6 °F 94% 30.02 in 10.0 mi Calm Calm - N/A   Clear
6:35 AM 73.4 °F - 71.6 °F 94% 30.02 in 10.0 mi Calm Calm - N/A   Clear
6:52 AM 75.2 °F - 71.6 °F 89% 30.03 in 12.0 mi Calm Calm - N/A   Mostly Cloudy
7:50 AM 75.2 °F - 73.4 °F 94% 30.03 in 12.0 mi Calm Calm - N/A   Mostly Cloudy
8:50 AM 78.8 °F - 73.4 °F 83% 30.05 in 15.0 mi Calm Calm - N/A   Mostly Cloudy
9:55 AM 84.2 °F 89.6 °F 71.6 °F 66% 30.05 in 15.0 mi South 3.5 mph - N/A   Mostly Cloudy
10:50 AM 86.0 °F 91.8 °F 71.6 °F 62% 30.06 in 15.0 mi South 4.6 mph - N/A   Mostly Cloudy
11:50 AM 87.8 °F 92.6 °F 69.8 °F 55% 30.04 in 15.0 mi SSW 4.6 mph - N/A   Mostly Cloudy
12:52 PM 89.6 °F 93.4 °F 68.0 °F 49% 30.03 in 15.0 mi Variable 4.6 mph - N/A   Mostly Cloudy
1:50 PM 91.4 °F 94.0 °F 66.2 °F 43% 30.02 in 15.0 mi South 3.5 mph - N/A   Mostly Cloudy
5:50 PM 87.8 °F 92.6 °F 69.8 °F 55% 29.97 in 15.0 mi NW 10.4 mph - N/A   Mostly Cloudy
6:50 PM 86.0 °F 90.4 °F 69.8 °F 58% 29.98 in 15.0 mi NNW 8.1 mph - N/A   Mostly Cloudy
7:50 PM 78.8 °F - 69.8 °F 74% 30.01 in 5.0 mi East 15.0 mph 27.6 mph N/A Rain , Thunderstorm Thunderstorms and Rain
8:50 PM 73.4 °F - 71.6 °F 94% 30.08 in 7.0 mi East 9.2 mph - N/A Rain Light Rain
9:50 PM 73.4 °F - 71.6 °F 94% 30.02 in 7.0 mi Calm Calm - N/A   Overcast
10:55 PM 73.4 °F - 71.6 °F 94% 30.02 in 7.0 mi WSW 3.5 mph - N/A   Scattered Clouds
11:15 PM 73.4 °F - 71.6 °F 94% 30.02 in 10.0 mi Calm Calm - N/A   Clear
11:35 PM 73.4 °F - 71.6 °F 94% 30.01 in 10.0 mi Calm Calm - N/A   Clear
11:55 PM 73.4 °F - 71.6 °F 94% 30.01 in 10.0 mi Calm Calm - N/A   Clear